TimeEST,TemperatureF,Dew PointF,Humidity,Sea Level PressureIn,VisibilityMPH,Wind Direction,Wind SpeedMPH,Gust SpeedMPH,PrecipitationIn,Events,Conditions,WindDirDegrees,DateUTC
12:54 AM,21.9,10.9,63,30.08,10.0,West,11.5,-,N/A,,Overcast,280,2013-02-21 05:54:00
1:54 AM,21.9,10.9,63,30.08,10.0,West,9.2,-,N/A,,Overcast,280,2013-02-21 06:54:00
2:54 AM,23.0,10.0,58,30.08,10.0,West,15.0,21.9,N/A,,Overcast,270,2013-02-21 07:54:00
3:54 AM,21.9,10.9,63,30.07,10.0,West,11.5,-,N/A,,Overcast,280,2013-02-21 08:54:00
4:54 AM,21.9,10.9,63,30.09,10.0,West,11.5,-,N/A,,Overcast,280,2013-02-21 09:54:00
5:54 AM,21.9,12.0,66,30.09,10.0,West,9.2,-,0.00,,Overcast,280,2013-02-21 10:54:00
6:54 AM,21.9,12.9,68,30.11,10.0,West,9.2,-,0.00,,Overcast,270,2013-02-21 11:54:00
7:54 AM,23.0,12.9,65,30.13,10.0,West,13.8,-,N/A,,Overcast,270,2013-02-21 12:54:00
8:54 AM,24.1,12.0,60,30.15,10.0,West,12.7,-,N/A,,Overcast,270,2013-02-21 13:54:00
9:54 AM,25.0,10.9,55,30.17,10.0,NW,16.1,26.5,N/A,,Overcast,310,2013-02-21 14:54:00
10:54 AM,26.1,12.9,58,30.17,10.0,WNW,15.0,-,N/A,,Overcast,300,2013-02-21 15:54:00
11:54 AM,28.4,12.2,51,30.13,10.0,WNW,16.1,21.9,N/A,,Mostly Cloudy,300,2013-02-21 16:54:00
12:54 PM,30.9,15.1,52,30.15,10.0,West,16.1,24.2,N/A,,Mostly Cloudy,280,2013-02-21 17:54:00
1:54 PM,32.0,12.9,45,30.16,10.0,NW,12.7,-,N/A,,Mostly Cloudy,310,2013-02-21 18:54:00
2:54 PM,33.1,14.0,46,30.16,10.0,WNW,12.7,-,N/A,,Partly Cloudy,300,2013-02-21 19:54:00
3:54 PM,34.0,15.1,46,30.17,10.0,WNW,11.5,-,N/A,,Clear,300,2013-02-21 20:54:00
4:54 PM,33.1,14.0,46,30.21,10.0,NW,15.0,21.9,N/A,,Clear,320,2013-02-21 21:54:00
5:54 PM,30.9,14.0,50,30.23,10.0,North,3.5,-,N/A,,Partly Cloudy,350,2013-02-21 22:54:00
6:54 PM,28.9,14.0,54,30.30,10.0,NW,6.9,-,N/A,,Clear,310,2013-02-21 23:54:00
7:54 PM,27.0,14.0,58,30.35,10.0,WNW,11.5,-,N/A,,Clear,300,2013-02-22 00:54:00
8:54 PM,26.1,12.9,58,30.36,10.0,NNW,6.9,-,N/A,,Clear,330,2013-02-22 01:54:00
9:54 PM,25.0,12.9,60,30.37,10.0,NE,6.9,-,N/A,,Clear,50,2013-02-22 02:54:00
10:15 PM,24.8,12.2,59,30.35,10.0,Calm,Calm,-,N/A,,Mostly Cloudy,0,2013-02-22 03:15:00
10:36 PM,24.8,12.2,59,30.35,10.0,NNW,3.5,-,N/A,,Scattered Clouds,330,2013-02-22 03:36:00
10:54 PM,24.1,12.9,62,30.38,10.0,Calm,Calm,-,N/A,,Partly Cloudy,0,2013-02-22 03:54:00
11:21 PM,24.8,12.2,59,30.35,10.0,North,4.6,-,N/A,,Mostly Cloudy,360,2013-02-22 04:21:00
11:54 PM,24.1,14.0,65,30.38,10.0,North,4.6,-,N/A,,Mostly Cloudy,10,2013-02-22 04:54:00